| time (UTC) | temp F | wind direction | speed knots | gust knots | rain 1hr in | rain 24hr in | rain mn in | humidity % | barometer mb |
| 20260504222033 | 79 | 241 | 3.5 | 7.0 | 0.00 | 0.00 | 0.00 | 35 | 1009.0 |
| 20260504221030 | 79 | 223 | 5.2 | 7.8 | 0.00 | 0.00 | 0.00 | 35 | 1009.1 |
| 20260504220028 | 79 | 230 | 5.2 | 13.0 | 0.00 | 0.00 | 0.00 | 36 | 1009.0 |
| 20260504215025 | 79 | 223 | 4.3 | 8.7 | 0.00 | 0.00 | 0.00 | 36 | 1009.2 |
| 20260504214025 | 79 | 228 | 5.2 | 11.3 | 0.00 | 0.00 | 0.00 | 35 | 1009.1 |
| 20260504213022 | 79 | 233 | 4.3 | 8.7 | 0.00 | 0.00 | 0.00 | 36 | 1009.1 |
| 20260504212019 | 79 | 228 | 4.3 | 12.2 | 0.00 | 0.00 | 0.00 | 36 | 1009.3 |
| 20260504211040 | 79 | 198 | 4.3 | 7.8 | 0.00 | 0.00 | 0.00 | 36 | 1009.4 |
| 20260504210035 | 79 | 228 | 4.3 | 9.6 | 0.00 | 0.00 | 0.00 | 36 | 1009.5 |
| 20260504205034 | 79 | 230 | 4.3 | 9.6 | 0.00 | 0.00 | 0.00 | 36 | 1009.5 |
| 20260504204112 | 79 | 231 | 5.2 | 8.7 | 0.00 | 0.00 | 0.00 | 36 | 1009.7 |
| 20260504203030 | 79 | 192 | 3.5 | 8.7 | 0.00 | 0.00 | 0.00 | 37 | 1009.9 |
| 20260504202026 | 80 | 216 | 2.6 | 5.2 | 0.00 | 0.00 | 0.00 | 36 | 1010.1 |
| 20260504201025 | 80 | 219 | 5.2 | 7.8 | 0.00 | 0.00 | 0.00 | 35 | 1010.3 |
| 20260504200024 | 79 | 195 | 4.3 | 9.6 | 0.00 | 0.00 | 0.00 | 37 | 1010.3 |
| 20260504195021 | 78 | 236 | 4.3 | 7.0 | 0.00 | 0.00 | 0.00 | 37 | 1010.5 |
| 20260504194018 | 79 | 229 | 4.3 | 7.8 | 0.00 | 0.00 | 0.00 | 37 | 1010.7 |
| 20260504193037 | 79 | 233 | 5.2 | 9.6 | 0.00 | 0.00 | 0.00 | 37 | 1010.8 |
| 20260504192032 | 79 | 199 | 4.3 | 7.8 | 0.00 | 0.00 | 0.00 | 37 | 1010.9 |
| 20260504191043 | 79 | 230 | 5.2 | 7.8 | 0.00 | 0.00 | 0.00 | 38 | 1010.9 |
| 20260504190029 | 79 | 230 | 3.5 | 7.8 | 0.00 | 0.00 | 0.00 | 37 | 1011.2 |
| 20260504185026 | 79 | 217 | 3.5 | 7.0 | 0.00 | 0.00 | 0.00 | 37 | 1011.2 |
| 20260504184025 | 78 | 230 | 4.3 | 7.8 | 0.00 | 0.00 | 0.00 | 38 | 1011.3 |
| 20260504183023 | 78 | 220 | 4.3 | 8.7 | 0.00 | 0.00 | 0.00 | 38 | 1011.5 |
| 20260504182021 | 78 | 217 | 4.3 | 8.7 | 0.00 | 0.00 | 0.00 | 38 | 1011.7 |
| 20260504181017 | 78 | 246 | 4.3 | 7.8 | 0.00 | 0.00 | 0.00 | 39 | 1011.7 |
| 20260504180035 | 78 | 238 | 4.3 | 9.6 | 0.00 | 0.00 | 0.00 | 39 | 1011.7 |
| 20260504175033 | 77 | 227 | 5.2 | 9.6 | 0.00 | 0.00 | 0.00 | 40 | 1011.9 |
| 20260504174032 | 77 | 225 | 4.3 | 7.0 | 0.00 | 0.00 | 0.00 | 42 | 1012.1 |
| 20260504173029 | 77 | 219 | 3.5 | 5.2 | 0.00 | 0.00 | 0.00 | 43 | 1012.1 |
| 20260504172028 | 77 | 230 | 4.3 | 11.3 | 0.00 | 0.00 | 0.00 | 42 | 1012.3 |
| 20260504171026 | 76 | 220 | 2.6 | 3.5 | 0.00 | 0.00 | 0.00 | 44 | 1012.4 |
| 20260504160108 | 74 | 233 | 4.3 | 9.6 | 0.00 | 0.00 | 0.00 | 50 | 1013.3 |
| 20260504151018 | 70 | 242 | 2.6 | 6.1 | 0.00 | 0.00 | 0.00 | 56 | 1013.6 |
| 20260504141025 | 68 | 236 | 3.5 | 7.0 | 0.00 | 0.00 | 0.00 | 60 | 1013.7 |
| 20260504120115 | 61 | 261 | 0.0 | 1.7 | 0.00 | 0.00 | 0.00 | 71 | 1013.1 |
| 20260504081024 | 62 | 256 | 0.9 | 2.6 | 0.00 | 0.00 | 0.00 | 62 | 1013.1 |
| 20260504050022 | 61 | 234 | 0.9 | 1.7 | 0.00 | 0.00 | 0.00 | 59 | 1014.8 |
| 20260504045019 | 61 | 252 | 0.9 | 1.7 | 0.00 | 0.00 | 0.00 | 59 | 1014.8 |
| 20260504044019 | 62 | 250 | 0.9 | 1.7 | 0.00 | 0.00 | 0.00 | 58 | 1014.8 |
| 20260504043035 | 62 | 241 | 0.9 | 1.7 | 0.00 | 0.00 | 0.00 | 58 | 1014.8 |
| 20260504042053 | 62 | 246 | 0.9 | 1.7 | 0.00 | 0.00 | 0.00 | 58 | 1014.7 |
| 20260504041030 | 62 | 279 | 0.9 | 1.7 | 0.00 | 0.00 | 0.00 | 58 | 1014.6 |
| 20260504040027 | 62 | 261 | 0.9 | 0.9 | 0.00 | 0.00 | 0.00 | 59 | 1014.8 |
| 20260504035025 | 62 | 0.0 | 0.0 | 0.00 | 0.00 | 0.00 | 59 | 1014.9 | |
| 20260504034024 | 61 | 0.0 | 0.0 | 0.00 | 0.00 | 0.00 | 59 | 1014.8 | |
| 20260504033020 | 62 | 0.0 | 0.0 | 0.00 | 0.00 | 0.00 | 58 | 1014.9 | |
| 20260504032018 | 62 | 0.0 | 0.0 | 0.00 | 0.00 | 0.00 | 58 | 1015.1 | |
| 20260504031016 | 63 | 0.0 | 0.0 | 0.00 | 0.00 | 0.00 | 56 | 1015.2 | |
| 20260504030038 | 64 | 0.0 | 0.0 | 0.00 | 0.00 | 0.00 | 54 | 1015.1 | |
| 20260504025035 | 64 | 0.0 | 0.0 | 0.00 | 0.00 | 0.00 | 53 | 1015.2 | |
| 20260504024030 | 64 | 0.0 | 0.0 | 0.00 | 0.00 | 0.00 | 52 | 1015.0 | |
| 20260504023108 | 64 | 0.0 | 0.0 | 0.00 | 0.00 | 0.00 | 52 | 1014.9 | |
| 20260504022045 | 64 | 0.0 | 0.0 | 0.00 | 0.00 | 0.00 | 52 | 1014.9 | |
| 20260504021034 | 65 | 0.0 | 0.0 | 0.00 | 0.00 | 0.00 | 49 | 1014.7 | |
| 20260504020020 | 66 | 0.0 | 0.0 | 0.00 | 0.00 | 0.00 | 48 | 1014.8 | |
| 20260504015018 | 66 | 0.0 | 0.0 | 0.00 | 0.00 | 0.00 | 45 | 1014.6 | |
| 20260504014018 | 67 | 0.0 | 0.0 | 0.00 | 0.00 | 0.00 | 44 | 1014.5 | |
| 20260504013034 | 68 | 0.0 | 0.0 | 0.00 | 0.00 | 0.00 | 43 | 1014.5 | |
| 20260504012033 | 68 | 0.0 | 0.0 | 0.00 | 0.00 | 0.00 | 41 | 1014.5 | |
| 20260504011031 | 69 | 0.0 | 0.0 | 0.00 | 0.00 | 0.00 | 40 | 1014.4 | |
| 20260504010028 | 70 | 0.0 | 0.0 | 0.00 | 0.00 | 0.00 | 39 | 1014.6 | |
| 20260504005025 | 70 | 0.0 | 0.0 | 0.00 | 0.00 | 0.00 | 38 | 1014.6 | |
| 20260504004023 | 71 | 273 | 0.9 | 0.9 | 0.00 | 0.00 | 0.00 | 37 | 1014.5 |
| 20260504003041 | 72 | 266 | 0.9 | 1.7 | 0.00 | 0.00 | 0.00 | 37 | 1014.6 |
| 20260504002039 | 72 | 267 | 0.9 | 1.7 | 0.00 | 0.00 | 0.00 | 35 | 1014.5 |
| 20260504001017 | 72 | 250 | 1.7 | 2.6 | 0.00 | 0.00 | 0.00 | 34 | 1014.4 |
| 20260504000034 | 73 | 255 | 1.7 | 2.6 | 0.00 | 0.00 | 0.00 | 33 | 1014.6 |
| 20260503235034 | 73 | 234 | 1.7 | 2.6 | 0.00 | 0.00 | 0.00 | 33 | 1014.7 |
| 20260503234032 | 73 | 235 | 2.6 | 5.2 | 0.00 | 0.00 | 0.00 | 32 | 1014.7 |
| 20260503233103 | 73 | 243 | 0.9 | 2.6 | 0.00 | 0.00 | 0.00 | 32 | 1014.9 |
| 20260503232027 | 73 | 244 | 2.6 | 3.5 | 0.00 | 0.00 | 0.00 | 31 | 1014.9 |
| 20260503231025 | 73 | 254 | 0.9 | 1.7 | 0.00 | 0.00 | 0.00 | 32 | 1015.0 |
| 20260503230041 | 73 | 266 | 2.6 | 5.2 | 0.00 | 0.00 | 0.00 | 30 | 1015.1 |
| 20260503225020 | 73 | 244 | 1.7 | 2.6 | 0.00 | 0.00 | 0.00 | 31 | 1015.2 |
| 20260503224118 | 73 | 224 | 2.6 | 6.1 | 0.00 | 0.00 | 0.00 | 30 | 1015.2 |
| 20260503223034 | 74 | 247 | 2.6 | 5.2 | 0.00 | 0.00 | 0.00 | 27 | 1015.6 |